SWA3055 KMKE-KBNA

Flight info

Callsign SWA3055
Flight time 1h 12m
Altitude 40000
Route UECKR6 DELHI PXV/N0443F390 GUMMA RYYMN2
Aircraft B736/M-SDE2E3FGHIRWXY/LB1

Departure

Time 2026-05-06 00:26
Airport General Mitchell International Airport (KMKE)

Arrival

Time 2026-05-06 01:38
Airport Nashville International Airport (KBNA)
Time Latitude Longitude Altitude Speed Heading
2026-05-05 23:49 42.95056 -87.89959 687 ft 0 kts 257°
2026-05-06 00:15 42.95056 -87.89957 687 ft 2 kts 257°
2026-05-06 00:16 42.95061 -87.89924 687 ft 4 kts 257°
2026-05-06 00:16 42.95066 -87.89894 679 ft 4 kts 244°
2026-05-06 00:16 42.95083 -87.89873 681 ft 4 kts 172°
2026-05-06 00:16 42.95103 -87.89892 684 ft 3 kts 132°
2026-05-06 00:17 42.95106 -87.89896 683 ft 0 kts 132°
2026-05-06 00:20 42.95105 -87.89895 683 ft 1 kts 132°
2026-05-06 00:20 42.95090 -87.89874 682 ft 5 kts 132°
2026-05-06 00:21 42.95058 -87.89830 684 ft 9 kts 143°
2026-05-06 00:21 42.94990 -87.89783 682 ft 12 kts 151°
2026-05-06 00:21 42.94917 -87.89706 686 ft 13 kts 166°
2026-05-06 00:21 42.94842 -87.89708 685 ft 12 kts 186°
2026-05-06 00:22 42.94771 -87.89694 686 ft 10 kts 137°
2026-05-06 00:22 42.94715 -87.89634 682 ft 11 kts 174°
2026-05-06 00:22 42.94633 -87.89627 686 ft 13 kts 145°
2026-05-06 00:22 42.94616 -87.89510 681 ft 14 kts 95°
2026-05-06 00:23 42.94614 -87.89354 683 ft 18 kts 76°
2026-05-06 00:23 42.94656 -87.89182 686 ft 19 kts 71°
2026-05-06 00:23 42.94692 -87.89026 684 ft 15 kts 71°
2026-05-06 00:23 42.94716 -87.88919 684 ft 8 kts 83°
2026-05-06 00:24 42.94712 -87.88898 687 ft 0 kts 117°
2026-05-06 00:25 42.94709 -87.88894 687 ft 3 kts 134°
2026-05-06 00:25 42.94649 -87.88860 683 ft 16 kts 168°
2026-05-06 00:25 42.94590 -87.88971 687 ft 18 kts 255°
2026-05-06 00:25 42.94469 -87.89466 681 ft 109 kts 252°
2026-05-06 00:26 42.94141 -87.90816 1082 ft 171 kts 254°
2026-05-06 00:26 42.93776 -87.92478 2202 ft 203 kts 257°
2026-05-06 00:26 42.93369 -87.94332 3585 ft 207 kts 256°
2026-05-06 00:26 42.92943 -87.96379 4481 ft 235 kts 255°
2026-05-06 00:27 42.92156 -87.98310 5811 ft 238 kts 228°
2026-05-06 00:27 42.90697 -87.99505 6606 ft 260 kts 200°
2026-05-06 00:27 42.88834 -87.99676 7379 ft 279 kts 173°
2026-05-06 00:27 42.87016 -87.98689 8474 ft 287 kts 148°
2026-05-06 00:28 42.85567 -87.96758 9518 ft 298 kts 131°
2026-05-06 00:28 42.84345 -87.94415 10368 ft 310 kts 128°
2026-05-06 00:28 42.83112 -87.91846 10699 ft 339 kts 127°
2026-05-06 00:28 42.81799 -87.89095 11269 ft 355 kts 127°
2026-05-06 00:29 42.80412 -87.86229 12080 ft 364 kts 128°
2026-05-06 00:29 42.78991 -87.83343 12960 ft 371 kts 129°
2026-05-06 00:29 42.77529 -87.80415 13810 ft 379 kts 130°
2026-05-06 00:29 42.76021 -87.77419 14617 ft 385 kts 130°
2026-05-06 00:30 42.74490 -87.74388 15484 ft 390 kts 130°
2026-05-06 00:30 42.72938 -87.71325 16344 ft 396 kts 130°
2026-05-06 00:30 42.71345 -87.68242 17146 ft 401 kts 135°
2026-05-06 00:30 42.69305 -87.65755 17917 ft 391 kts 157°
2026-05-06 00:31 42.66856 -87.64320 18767 ft 375 kts 175°
2026-05-06 00:31 42.64325 -87.63857 19708 ft 362 kts 186°
2026-05-06 00:31 42.61813 -87.63711 20605 ft 361 kts 188°
2026-05-06 00:31 42.59306 -87.63589 21416 ft 365 kts 187°
2026-05-06 00:32 42.56780 -87.63434 22243 ft 368 kts 187°
2026-05-06 00:32 42.54176 -87.63252 23070 ft 371 kts 187°
2026-05-06 00:32 42.51645 -87.63057 23824 ft 374 kts 187°
2026-05-06 00:32 42.49016 -87.62842 24474 ft 378 kts 187°
2026-05-06 00:33 42.46378 -87.62628 25078 ft 383 kts 187°
2026-05-06 00:33 42.43699 -87.62414 25694 ft 387 kts 187°
2026-05-06 00:33 42.41046 -87.62508 26307 ft 377 kts 198°
2026-05-06 00:33 42.38469 -87.63108 26956 ft 377 kts 200°
2026-05-06 00:34 42.35870 -87.63740 27577 ft 381 kts 200°
2026-05-06 00:34 42.33241 -87.64337 28177 ft 385 kts 200°
2026-05-06 00:34 42.30629 -87.65090 28741 ft 378 kts 208°
2026-05-06 00:34 42.28206 -87.66401 29360 ft 375 kts 212°
2026-05-06 00:35 42.25816 -87.67809 29947 ft 376 kts 213°
2026-05-06 00:35 42.23410 -87.69234 30450 ft 378 kts 214°
2026-05-06 00:35 42.21048 -87.70614 30904 ft 381 kts 214°
2026-05-06 00:35 42.18607 -87.72020 31340 ft 384 kts 214°
2026-05-06 00:36 42.16115 -87.73440 31754 ft 387 kts 214°
2026-05-06 00:36 42.13626 -87.74852 32150 ft 389 kts 215°
2026-05-06 00:36 42.11124 -87.76268 32569 ft 391 kts 215°
2026-05-06 00:36 42.08627 -87.77612 33060 ft 397 kts 211°
2026-05-06 00:37 42.05883 -87.78371 33565 ft 420 kts 200°
2026-05-06 00:37 42.02875 -87.78503 33985 ft 430 kts 196°
2026-05-06 00:37 41.99829 -87.78499 34298 ft 433 kts 195°
2026-05-06 00:37 41.96850 -87.78515 34610 ft 433 kts 196°
2026-05-06 00:38 41.93832 -87.78573 34984 ft 432 kts 197°
2026-05-06 00:38 41.90830 -87.78629 35359 ft 433 kts 196°
2026-05-06 00:38 41.87806 -87.78630 35680 ft 435 kts 195°
2026-05-06 00:38 41.84767 -87.78605 35993 ft 436 kts 195°
2026-05-06 00:39 41.81725 -87.78570 36337 ft 436 kts 195°
2026-05-06 00:39 41.78689 -87.78534 36674 ft 437 kts 195°
2026-05-06 00:39 41.75659 -87.78502 36974 ft 437 kts 195°
2026-05-06 00:39 41.72601 -87.78476 37280 ft 438 kts 195°
2026-05-06 00:40 41.69603 -87.78453 37590 ft 438 kts 195°
2026-05-06 00:40 41.66560 -87.78431 37920 ft 437 kts 195°
2026-05-06 00:40 41.63507 -87.78411 38224 ft 438 kts 195°
2026-05-06 00:40 41.60463 -87.78392 38513 ft 438 kts 195°
2026-05-06 00:41 41.57410 -87.78374 38764 ft 438 kts 195°
2026-05-06 00:41 41.54363 -87.78354 39021 ft 438 kts 194°
2026-05-06 00:41 41.51309 -87.78335 39239 ft 439 kts 194°
2026-05-06 00:41 41.48249 -87.78316 39459 ft 439 kts 194°
2026-05-06 00:42 41.45194 -87.78297 39692 ft 439 kts 194°
2026-05-06 00:42 41.42140 -87.78278 39879 ft 441 kts 194°
2026-05-06 00:42 41.39039 -87.78265 39861 ft 446 kts 194°
2026-05-06 00:43 41.32837 -87.78226 39872 ft 444 kts 194°
2026-05-06 00:43 41.26719 -87.78172 39877 ft 437 kts 194°
2026-05-06 00:44 41.20657 -87.78134 39883 ft 437 kts 194°
2026-05-06 00:44 41.14568 -87.78101 39891 ft 437 kts 194°
2026-05-06 00:45 41.08477 -87.78066 39897 ft 438 kts 194°
2026-05-06 00:45 41.02382 -87.78032 39844 ft 442 kts 194°
2026-05-06 00:45 40.99275 -87.78023 39483 ft 449 kts 194°
2026-05-06 00:46 40.96156 -87.78005 39131 ft 446 kts 194°
2026-05-06 00:46 40.93077 -87.77976 38916 ft 440 kts 194°
2026-05-06 00:46 40.90011 -87.77945 38900 ft 438 kts 195°
2026-05-06 00:47 40.83970 -87.77909 38892 ft 440 kts 195°
2026-05-06 00:47 40.77828 -87.77879 38883 ft 442 kts 194°
2026-05-06 00:48 40.71666 -87.77844 38873 ft 443 kts 194°
2026-05-06 00:48 40.65528 -87.77805 38877 ft 443 kts 194°
2026-05-06 00:49 40.59349 -87.77765 38876 ft 443 kts 194°
2026-05-06 00:49 40.54219 -87.77732 38884 ft 442 kts 194°
2026-05-06 00:50 40.47075 -87.77688 38883 ft 442 kts 194°
2026-05-06 00:50 40.41971 -87.77656 38884 ft 441 kts 194°
2026-05-06 00:51 40.35841 -87.77619 38886 ft 440 kts 194°
2026-05-06 00:51 40.29740 -87.77582 38885 ft 439 kts 195°
2026-05-06 00:52 40.23627 -87.77546 38887 ft 438 kts 195°
2026-05-06 00:52 40.17536 -87.77509 38888 ft 438 kts 195°
2026-05-06 00:53 40.11451 -87.77473 38890 ft 438 kts 195°
2026-05-06 00:53 40.05351 -87.77437 38892 ft 438 kts 194°
2026-05-06 00:54 39.99291 -87.77402 38900 ft 438 kts 194°
2026-05-06 00:54 39.93190 -87.77366 38871 ft 438 kts 194°
2026-05-06 00:55 39.87089 -87.77330 38859 ft 439 kts 194°
2026-05-06 00:55 39.80976 -87.77293 38848 ft 439 kts 194°
2026-05-06 00:56 39.74933 -87.77257 38838 ft 439 kts 194°
2026-05-06 00:56 39.68804 -87.77220 38837 ft 439 kts 194°
2026-05-06 00:57 39.62728 -87.77183 38841 ft 439 kts 194°
2026-05-06 00:57 39.56653 -87.77147 38849 ft 439 kts 194°
2026-05-06 00:58 39.50509 -87.77110 38864 ft 439 kts 194°
2026-05-06 00:58 39.44405 -87.77074 38875 ft 438 kts 194°
2026-05-06 00:59 39.38310 -87.77038 38883 ft 438 kts 194°
2026-05-06 00:59 39.32214 -87.77003 38885 ft 438 kts 194°
2026-05-06 01:00 39.26128 -87.76967 38876 ft 438 kts 194°
2026-05-06 01:00 39.20036 -87.76931 38871 ft 438 kts 194°
2026-05-06 01:01 39.13945 -87.76896 38868 ft 438 kts 195°
2026-05-06 01:01 39.07939 -87.76862 38869 ft 438 kts 195°
2026-05-06 01:02 39.01775 -87.76827 38861 ft 439 kts 195°
2026-05-06 01:02 38.95693 -87.76792 38865 ft 440 kts 195°
2026-05-06 01:03 38.89522 -87.76756 38885 ft 441 kts 195°
2026-05-06 01:03 38.83368 -87.76721 38922 ft 442 kts 194°
2026-05-06 01:04 38.77216 -87.76684 38924 ft 443 kts 194°
2026-05-06 01:04 38.71070 -87.76648 38927 ft 443 kts 194°
2026-05-06 01:05 38.64897 -87.76612 38861 ft 443 kts 194°
2026-05-06 01:05 38.58718 -87.76575 38862 ft 443 kts 194°
2026-05-06 01:06 38.52571 -87.76540 38859 ft 443 kts 194°
2026-05-06 01:06 38.46451 -87.76505 38862 ft 442 kts 194°
2026-05-06 01:07 38.40297 -87.76469 38861 ft 442 kts 194°
2026-05-06 01:07 38.34150 -87.76434 38858 ft 441 kts 195°
2026-05-06 01:08 38.28171 -87.76965 38852 ft 405 kts 213°
2026-05-06 01:08 38.25761 -87.78488 38852 ft 373 kts 230°
2026-05-06 01:08 38.24038 -87.80765 38858 ft 347 kts 246°
2026-05-06 01:09 38.21809 -87.86093 38851 ft 343 kts 247°
2026-05-06 01:09 38.20097 -87.88321 38873 ft 367 kts 225°
2026-05-06 01:09 38.17636 -87.89488 38846 ft 394 kts 204°
2026-05-06 01:10 38.12097 -87.89350 38367 ft 411 kts 189°
2026-05-06 01:10 38.09208 -87.88629 37640 ft 437 kts 177°
2026-05-06 01:10 38.06294 -87.86992 37033 ft 477 kts 163°
2026-05-06 01:10 38.03392 -87.84766 36424 ft 494 kts 159°
2026-05-06 01:11 38.00490 -87.82356 35818 ft 501 kts 158°
2026-05-06 01:11 37.97570 -87.79939 35215 ft 499 kts 158°
2026-05-06 01:11 37.94638 -87.77601 34618 ft 496 kts 159°
2026-05-06 01:11 37.91709 -87.75287 34035 ft 497 kts 157°
2026-05-06 01:12 37.88876 -87.72865 33401 ft 498 kts 155°
2026-05-06 01:12 37.86048 -87.70313 32752 ft 498 kts 154°
2026-05-06 01:12 37.83247 -87.67737 32114 ft 497 kts 153°
2026-05-06 01:12 37.80454 -87.65167 31500 ft 498 kts 153°
2026-05-06 01:13 37.77629 -87.62592 30895 ft 501 kts 153°
2026-05-06 01:13 37.74787 -87.60025 30301 ft 504 kts 153°
2026-05-06 01:13 37.71971 -87.57487 29913 ft 486 kts 153°
2026-05-06 01:13 37.69352 -87.55119 29709 ft 463 kts 153°
2026-05-06 01:14 37.64185 -87.50491 28241 ft 445 kts 154°
2026-05-06 01:14 37.61655 -87.48244 27442 ft 439 kts 153°
2026-05-06 01:14 37.59175 -87.46041 26748 ft 430 kts 153°
2026-05-06 01:15 37.56764 -87.43895 26232 ft 419 kts 153°
2026-05-06 01:15 37.54416 -87.41804 25762 ft 407 kts 154°
2026-05-06 01:15 37.52133 -87.39772 25318 ft 398 kts 154°
2026-05-06 01:15 37.49874 -87.37770 24902 ft 396 kts 154°
2026-05-06 01:16 37.47626 -87.35782 24474 ft 394 kts 153°
2026-05-06 01:16 37.45389 -87.33802 24047 ft 393 kts 153°
2026-05-06 01:16 37.43159 -87.31826 23617 ft 391 kts 153°
2026-05-06 01:16 37.40934 -87.29855 23134 ft 390 kts 153°
2026-05-06 01:17 37.38745 -87.27915 22655 ft 388 kts 153°
2026-05-06 01:17 37.36526 -87.26038 22211 ft 379 kts 160°
2026-05-06 01:17 37.34129 -87.24968 21921 ft 358 kts 175°
2026-05-06 01:17 37.31719 -87.24258 21656 ft 354 kts 176°
2026-05-06 01:18 37.29293 -87.23581 21418 ft 360 kts 176°
2026-05-06 01:18 37.26758 -87.22889 21060 ft 388 kts 175°
2026-05-06 01:18 37.24073 -87.22145 20581 ft 397 kts 175°
2026-05-06 01:18 37.21374 -87.21369 20083 ft 397 kts 174°
2026-05-06 01:19 37.18697 -87.20585 19601 ft 394 kts 174°
2026-05-06 01:19 37.16033 -87.19802 19118 ft 392 kts 174°
2026-05-06 01:19 37.13382 -87.19023 18634 ft 390 kts 174°
2026-05-06 01:19 37.10744 -87.18251 18138 ft 389 kts 174°
2026-05-06 01:20 37.08108 -87.17482 17588 ft 388 kts 174°
2026-05-06 01:20 37.05498 -87.16720 17121 ft 382 kts 174°
2026-05-06 01:20 37.02958 -87.15978 16612 ft 376 kts 174°
2026-05-06 01:20 37.00430 -87.15242 16132 ft 371 kts 174°
2026-05-06 01:21 36.97899 -87.14506 15674 ft 366 kts 174°
2026-05-06 01:21 36.95428 -87.13790 15210 ft 363 kts 174°
2026-05-06 01:21 36.93006 -87.13089 14747 ft 358 kts 174°
2026-05-06 01:21 36.90639 -87.12399 14285 ft 342 kts 174°
2026-05-06 01:22 36.88340 -87.11732 13862 ft 337 kts 174°
2026-05-06 01:22 36.86068 -87.11077 13397 ft 334 kts 174°
2026-05-06 01:22 36.83814 -87.10426 12940 ft 331 kts 174°
2026-05-06 01:22 36.81596 -87.09743 12485 ft 331 kts 169°
2026-05-06 01:23 36.79453 -87.08633 12080 ft 333 kts 161°
2026-05-06 01:23 36.77393 -87.07322 11657 ft 331 kts 160°
2026-05-06 01:23 36.75364 -87.05992 11237 ft 328 kts 160°
2026-05-06 01:23 36.73345 -87.04697 10817 ft 325 kts 160°
2026-05-06 01:24 36.71353 -87.03450 10401 ft 315 kts 161°
2026-05-06 01:24 36.69428 -87.02261 10181 ft 300 kts 161°
2026-05-06 01:24 36.67560 -87.01122 10041 ft 298 kts 162°
2026-05-06 01:24 36.65698 -86.99989 9842 ft 299 kts 162°
2026-05-06 01:25 36.63815 -86.98844 9482 ft 302 kts 161°
2026-05-06 01:25 36.61925 -86.97691 9129 ft 299 kts 161°
2026-05-06 01:25 36.60102 -86.96571 8822 ft 285 kts 162°
2026-05-06 01:25 36.58351 -86.95498 8460 ft 275 kts 162°
2026-05-06 01:26 36.56650 -86.94462 8144 ft 270 kts 162°
2026-05-06 01:26 36.54958 -86.93435 7859 ft 273 kts 162°
2026-05-06 01:26 36.53235 -86.92392 7539 ft 277 kts 162°
2026-05-06 01:26 36.51502 -86.91338 7218 ft 276 kts 162°
2026-05-06 01:27 36.49783 -86.90292 6900 ft 275 kts 162°
2026-05-06 01:27 36.48097 -86.89184 6596 ft 277 kts 156°
2026-05-06 01:27 36.46478 -86.87865 6275 ft 277 kts 154°
2026-05-06 01:27 36.44901 -86.86514 5929 ft 274 kts 152°
2026-05-06 01:28 36.43573 -86.84776 5582 ft 287 kts 127°
2026-05-06 01:28 36.42910 -86.82433 5298 ft 293 kts 108°
2026-05-06 01:28 36.42519 -86.79974 5058 ft 288 kts 107°
2026-05-06 01:28 36.42176 -86.77511 4993 ft 287 kts 106°
2026-05-06 01:29 36.41841 -86.75070 4965 ft 287 kts 105°
2026-05-06 01:29 36.41502 -86.72628 4969 ft 286 kts 105°
2026-05-06 01:29 36.41157 -86.70190 4981 ft 287 kts 105°
2026-05-06 01:29 36.40812 -86.67772 4984 ft 288 kts 105°
2026-05-06 01:30 36.40458 -86.65299 4936 ft 287 kts 106°
2026-05-06 01:30 36.40117 -86.62890 4739 ft 274 kts 106°
2026-05-06 01:30 36.39827 -86.60607 4510 ft 262 kts 107°
2026-05-06 01:30 36.39211 -86.58645 4235 ft 235 kts 136°
2026-05-06 01:31 36.38021 -86.57469 3991 ft 209 kts 162°
2026-05-06 01:31 36.36732 -86.56746 3751 ft 199 kts 165°
2026-05-06 01:31 36.35480 -86.56087 3493 ft 192 kts 165°
2026-05-06 01:31 36.34270 -86.55484 3264 ft 181 kts 173°
2026-05-06 01:32 36.33094 -86.55583 3084 ft 165 kts 205°
2026-05-06 01:32 36.32150 -86.56355 3031 ft 163 kts 214°
2026-05-06 01:32 36.31264 -86.57225 3006 ft 161 kts 216°
2026-05-06 01:32 36.30377 -86.58084 3013 ft 163 kts 216°
2026-05-06 01:33 36.29468 -86.58962 3004 ft 167 kts 214°
2026-05-06 01:33 36.28458 -86.59598 2986 ft 157 kts 205°
2026-05-06 01:33 36.27504 -86.60130 2961 ft 143 kts 202°
2026-05-06 01:33 36.26591 -86.60565 2977 ft 139 kts 201°
2026-05-06 01:34 36.25674 -86.60960 2997 ft 143 kts 199°
2026-05-06 01:34 36.24709 -86.61357 2875 ft 149 kts 198°
2026-05-06 01:34 36.23741 -86.61749 2698 ft 144 kts 198°
2026-05-06 01:34 36.22791 -86.62129 2514 ft 143 kts 198°
2026-05-06 01:35 36.21838 -86.62514 2308 ft 139 kts 198°
2026-05-06 01:35 36.20987 -86.62858 2152 ft 115 kts 197°
2026-05-06 01:35 36.20284 -86.63139 2026 ft 105 kts 197°
2026-05-06 01:35 36.19580 -86.63422 1867 ft 108 kts 198°
2026-05-06 01:36 36.18847 -86.63730 1743 ft 113 kts 198°
2026-05-06 01:36 36.18091 -86.64031 1573 ft 116 kts 197°
2026-05-06 01:36 36.17333 -86.64341 1422 ft 118 kts 198°
2026-05-06 01:36 36.16792 -86.64559 1313 ft 125 kts 196°
2026-05-06 01:37 36.15944 -86.64886 1129 ft 127 kts 197°
2026-05-06 01:37 36.15099 -86.65231 954 ft 129 kts 197°
2026-05-06 01:37 36.14256 -86.65570 786 ft 124 kts 195°
2026-05-06 01:37 36.13433 -86.65910 594 ft 120 kts 198°
2026-05-06 01:38 36.12739 -86.66184 567 ft 88 kts 197°
2026-05-06 01:38 36.12287 -86.66361 573 ft 48 kts 198°
2026-05-06 01:38 36.12092 -86.66449 581 ft 18 kts 211°
2026-05-06 01:38 36.12049 -86.66551 581 ft 11 kts 284°
2026-05-06 01:39 36.12061 -86.66573 582 ft 0 kts 310°
2026-05-06 01:39 36.12061 -86.66574 582 ft 0 kts 314°
2026-05-06 01:39 36.12099 -86.66574 580 ft 9 kts 15°
2026-05-06 01:39 36.12177 -86.66546 575 ft 11 kts 17°
2026-05-06 01:40 36.12259 -86.66523 573 ft 13 kts 351°
2026-05-06 01:40 36.12299 -86.66613 576 ft 13 kts 287°
2026-05-06 01:40 36.12324 -86.66715 583 ft 13 kts 288°
2026-05-06 01:40 36.12356 -86.66817 581 ft 12 kts 299°
2026-05-06 01:41 36.12406 -86.66901 581 ft 12 kts 308°
2026-05-06 01:41 36.12488 -86.66951 581 ft 11 kts 22°
2026-05-06 01:41 36.12544 -86.66913 579 ft 7 kts 30°
2026-05-06 01:41 36.12590 -86.66880 581 ft 8 kts 30°
2026-05-06 01:42 36.12636 -86.66871 577 ft 6 kts 334°
2026-05-06 01:42 36.12663 -86.66916 579 ft 7 kts 303°
2026-05-06 01:42 36.12691 -86.66956 577 ft 4 kts 324°
2026-05-06 01:42 36.12711 -86.66975 577 ft 4 kts 330°
2026-05-06 01:43 36.12735 -86.66963 579 ft 5 kts 42°
2026-05-06 01:43 36.12749 -86.66946 578 ft 0 kts 42°
2026-05-06 01:43 36.12750 -86.66945 578 ft 0 kts 42°